EW1425 Weather Reports


Display with metric or nautical units.
time (UTC)temp
F
wind
direction
speed
MPH
gust
MPH
rain 1hr
in
rain 24hr
in
rain mn
in
humidity
%
barometer
mb
20210924054552 73 158 1.0 4.0 0.00 0.00 0.00 92 1017.2
20210924053101 73 150 1.0 5.0 0.00 0.00 0.00 92 1017.2
20210924051631 73 179 0.0 5.0 0.00 0.00 0.00 93 1017.3
20210924050043 73 139 1.0 5.0 0.00 0.00 0.00 93 1017.4
20210924044601 73 124 1.0 6.0 0.00 0.00 0.00 92 1017.5
20210924043055 73 218 1.0 4.0 0.00 0.00 0.00 92 1017.8
20210924041614 73 123 0.0 2.0 0.00 0.00 0.00 92 1017.8
20210924040102 73 113 1.0 7.0 0.00 0.00 0.00 92 1017.9
20210924034622 73 141 1.0 4.0 0.00 0.00 0.00 92 1018.0
20210924033055 73 137 1.0 5.0 0.00 0.00 0.00 91 1017.9
20210924031611 73 184 0.0 5.0 0.00 0.00 0.00 91 1018.0
20210924030117 73 105 1.0 4.0 0.00 0.00 0.00 90 1018.1
20210924024610 73 252 1.0 6.0 0.00 0.00 0.00 90 1018.2
20210924023148 73 158 0.0 5.0 0.00 0.00 0.00 90 1018.2
20210924021627 73 127 1.0 5.0 0.00 0.00 0.00 90 1018.2
20210924020036 73 148 0.0 5.0 0.00 0.00 0.00 91 1018.3
20210924014544 73 147 1.0 3.0 0.00 0.00 0.00 90 1018.2
20210924013032 73 130 0.0 5.0 0.00 0.00 0.00 91 1018.3
20210924011547 73 219 1.0 5.0 0.00 0.00 0.00 90 1018.3
20210924010027 73 118 1.0 6.0 0.00 0.00 0.00 90 1018.3
20210924004549 73 115 1.0 5.0 0.00 0.00 0.00 91 1018.3
20210924003107 73 77 1.0 5.0 0.00 0.00 0.00 91 1018.4
20210924001601 73 112 1.0 4.0 0.00 0.00 0.00 91 1018.3
20210924000029 73 167 1.0 5.0 0.00 0.00 0.00 91 1018.4
20210923234525 73 210 0.0 2.0 0.00 0.00 0.00 91 1018.5
20210923233022 73 173 0.0 3.0 0.00 0.00 0.00 91 1018.3
20210923231524 73 120 1.0 3.0 0.00 0.00 0.00 90 1018.2
20210923230024 74 197 0.0 3.0 0.00 0.00 0.00 90 1018.1
20210923224528 74 180 1.0 3.0 0.00 0.00 0.00 89 1018.0
20210923223059 74 186 1.0 4.0 0.00 0.00 0.00 90 1017.8
20210923221524 74 233 1.0 3.0 0.00 0.00 0.00 90 1017.7
20210923220022 74 246 0.0 3.0 0.00 0.00 0.00 87 1017.6
20210923214559 74 120 1.0 5.0 0.00 0.00 0.00 85 1017.6
20210923213030 74 281 1.0 3.0 0.00 0.00 0.00 87 1017.5
20210923211542 75 46 1.0 3.0 0.00 0.00 0.00 88 1017.5
20210923210025 75 267 1.0 4.0 0.00 0.00 0.00 87 1017.5
20210923204612 76 212 1.0 3.0 0.00 0.00 0.00 86 1017.4
20210923203029 76 160 1.0 8.0 0.00 0.00 0.00 85 1017.4
20210923201528 76 203 1.0 5.0 0.00 0.00 0.00 84 1017.4
20210923200019 77 258 1.0 5.0 0.00 0.00 0.00 84 1017.5
20210923194528 77 213 1.0 4.0 0.00 0.00 0.00 82 1017.8
20210923193012 77 233 1.0 4.0 0.00 0.00 0.00 82 1017.7
20210923191505 77 259 1.0 5.0 0.00 0.00 0.00 83 1017.7
20210923190004 77 118 2.0 6.0 0.00 0.00 0.00 82 1017.8
20210923184717 77 156 1.0 4.0 0.00 0.00 0.00 81 1018.0
20210923183219 77 84 1.0 5.0 0.00 0.00 0.00 80 1018.2
20210923181641 77 175 1.0 7.0 0.00 0.00 0.00 78 1018.1
20210923180146 77 238 1.0 5.0 0.00 0.00 0.00 78 1018.1
20210923174657 77 179 1.0 4.0 0.00 0.00 0.00 80 1018.1
20210923173136 77 222 1.0 4.0 0.00 0.00 0.00 80 1018.5
20210923171644 77 203 1.0 6.0 0.00 0.00 0.00 79 1018.6
20210923170125 78 141 1.0 5.0 0.00 0.00 0.00 79 1018.6
20210923164644 77 141 2.0 6.0 0.00 0.00 0.00 80 1018.6
20210923163152 78 203 2.0 6.0 0.00 0.00 0.00 79 1018.7
20210923161713 77 161 0.0 4.0 0.00 0.00 0.00 81 1018.7
20210923160140 78 213 1.0 4.0 0.00 0.00 0.00 80 1018.6
20210923154610 78 226 1.0 5.0 0.00 0.00 0.00 80 1018.7
20210923153119 76 165 1.0 5.0 0.00 0.00 0.00 83 1018.8
20210923151613 76 229 1.0 5.0 0.00 0.00 0.00 85 1018.9
20210923150233 76 194 1.0 7.0 0.00 0.00 0.00 84 1018.9
20210923144559 76 168 1.0 4.0 0.00 0.00 0.00 83 1018.8
20210923143059 76 240 0.0 2.0 0.00 0.00 0.00 84 1018.8
20210923141602 75 191 1.0 5.0 0.00 0.00 0.00 84 1018.8
20210923140132 76 201 1.0 3.0 0.00 0.00 0.00 84 1018.7
20210923134724 77 198 1.0 6.0 0.00 0.00 0.00 81 1018.5
20210923133117 77 131 2.0 8.0 0.00 0.00 0.00 81 1018.4
20210923131627 77 165 1.0 4.0 0.00 0.00 0.00 82 1018.4
20210923130104 76 178 1.0 5.0 0.00 0.00 0.00 83 1018.4
20210923124634 76 219 1.0 4.0 0.00 0.00 0.00 83 1018.3
20210923123054 76 134 1.0 3.0 0.00 0.00 0.00 84 1018.2
20210923121611 75 205 1.0 5.0 0.00 0.00 0.00 86 1018.2
20210923120107 74 134 1.0 3.0 0.00 0.00 0.00 87 1018.3
20210923114551 73 195 0.0 4.0 0.00 0.00 0.00 90 1018.3
20210923113024 72 46 0.0 3.0 0.00 0.00 0.00 91 1018.3
20210923111518 72 155 1.0 4.0 0.00 0.00 0.00 92 1018.2
20210923110021 71 252 0.0 6.0 0.00 0.00 0.00 93 1018.2
20210923104516 71 129 1.0 4.0 0.00 0.00 0.00 93 1018.1
20210923103012 71 160 0.0 4.0 0.00 0.00 0.00 93 1018.2
20210923101510 71 137 1.0 5.0 0.00 0.00 0.00 94 1018.2
20210923100013 71 131 0.0 4.0 0.00 0.00 0.00 94 1018.2
20210923094508 71 141 0.0 3.0 0.00 0.00 0.00 93 1018.3
20210923093006 71 283 0.0 5.0 0.00 0.00 0.00 93 1018.3
20210923091508 71 150 1.0 2.0 0.00 0.00 0.00 93 1018.4
20210923090015 71 146 0.0 2.0 0.00 0.00 0.00 93 1018.4
20210923084512 71 252 0.0 4.0 0.00 0.00 0.00 93 1018.3
20210923083003 71 168 0.0 3.0 0.00 0.00 0.00 94 1018.4
20210923081505 71 136 0.0 4.0 0.00 0.00 0.00 93 1018.6
20210923080120 71 213 0.0 3.0 0.00 0.00 0.00 93 1018.6
20210923074652 71 256 0.0 3.0 0.00 0.00 0.00 93 1018.7
20210923073149 71 94 0.0 5.0 0.00 0.00 0.00 93 1018.6
20210923071639 71 203 1.0 4.0 0.00 0.00 0.00 93 1018.7
20210923070240 71 143 1.0 5.0 0.00 0.00 0.00 93 1018.8
20210923064606 71 157 0.0 3.0 0.00 0.00 0.00 93 1018.8
20210923063134 71 167 1.0 6.0 0.00 0.00 0.00 93 1018.9
20210923061558 71 95 0.0 5.0 0.00 0.00 0.00 93 1018.9
20210923060058 71 236 0.0 4.0 0.00 0.00 0.00 93 1019.0